Regional Weather Roundup
Issued by NWS

Home | Current Version | Previous Version | Graphics & Text | Print | Product List | Glossary On
Versions: 1 2 3 4 5 6 7 8 9 10 11 12 13 14 15 16 17 18 19 20 21 22 23 24 25 26 27 28 29 30 31 32 33 34 35 36 37 38 39 40 41 42 43 44 45 46 47 48 49 50
000
ASUS43 KOAX 291210
RWRNE

WEATHER ROUNDUP FOR NEBRASKA
NATIONAL WEATHER SERVICE OMAHA NE
700 AM CDT WED OCT 29 2014

NOTES: SATELLITE DATA IS BEING USED TO AUGMENT CLOUD COVER ABOVE
       12000 FEET.
       "FAIR" INDICATES FEW OR NO CLOUDS BELOW 12,000 FEET WITH NO
       SIGNIFICANT WEATHER AND/OR OBSTRUCTIONS TO VISIBILITY.

  * THESE STATIONS DO NOT REPORT WEATHER SUCH AS RAIN...SNOW OR FOG.

NEZ001>004-019>022-054>056-291300-
NEBRASKA PANHANDLE

CITY           SKY/WX    TMP DP  RH WIND       PRES   REMARKS
SCOTTSBLUFF    PTCLDY    25  32 100 NW3       30.13S
6HR MIN TEMP:  25; 6HR MAX TEMP:  34;

ALLIANCE       PTCLDY    19  16  88 W6        30.11F WCI  11
6HR MIN TEMP:  19; 6HR MAX TEMP:  28;

CHADRON        PTCLDY    20  15  81 W3        30.10S
6HR MIN TEMP:  19; 6HR MAX TEMP:  24;

KIMBALL        PTCLDY    29  23  76 W5        30.13S WCI  24
SIDNEY         PTCLDY    25  20  81 W9        30.14F WCI  15
6HR MIN TEMP:  23; 6HR MAX TEMP:  29;

$$

NEZ057>060-069>072-079>082-291300-
SOUTHWEST NEBRASKA

CITY           SKY/WX    TMP DP  RH WIND       PRES   REMARKS
NORTH PLATTE   CLEAR     21  17  84 E3        30.18F
6HR MIN TEMP:  20; 6HR MAX TEMP:  28;

IMPERIAL       PTCLDY    27  20  75 CALM      30.16F
6HR MIN TEMP:  25; 6HR MAX TEMP:  35;

LEXINGTON      CLEAR     25  22  89 CALM      30.20S
MCCOOK         CLEAR     23  20  88 W5        30.20S WCI  17
6HR MIN TEMP:  23; 6HR MAX TEMP:  33;

OGALLALA       CLEAR     22  19  87 CALM      30.15F
$$

NEZ005>010-023>029-035>040-094-291300-
NORTH CENTRAL NEBRASKA

CITY           SKY/WX    TMP DP  RH WIND       PRES   REMARKS
VALENTINE      PTCLDY    19  16  88 W3        30.15F
6HR MIN TEMP:  19; 6HR MAX TEMP:  26;

AINSWORTH      PTCLDY    24  19  83 S5        30.15F WCI  18
BROKEN BOW     MOCLDY    22  17  81 CALM      30.18F
6HR MIN TEMP:  21; 6HR MAX TEMP:  26;

O`NEILL        CLEAR     26  25  94 CALM      30.19S
ORD            CLEAR     22  18  85 CALM      30.19F
6HR MIN TEMP:  20; 6HR MAX TEMP:  29;

THEDFORD       PTCLDY    22  20  91 CALM      30.16F
$$

NEZ041-046>049-061>064-073>077-083>087-291300-
SOUTH CENTRAL NEBRASKA

CITY           SKY/WX    TMP DP  RH WIND       PRES   REMARKS
GRAND ISLAND   CLEAR     29  24  82 W3        30.22S
6HR MIN TEMP:  27; 6HR MAX TEMP:  34;

AURORA         CLEAR     28  25  87 CALM      30.22R
HASTINGS       CLEAR     31  24  75 CALM      30.21S
6HR MIN TEMP:  29; 6HR MAX TEMP:  36;

HEBRON         CLEAR     27  24  89 CALM      30.23S
HOLDREGE       CLEAR     28  22  78 CALM      30.20S
KEARNEY *      PTCLDY    27  19  74 W3        30.21S
YORK           CLEAR     30  27  86 N3        30.22S
$$

NEZ011>018-030>034-042>045-291300-
NORTHEAST NEBRASKA

CITY           SKY/WX    TMP DP  RH WIND       PRES   REMARKS
NORFOLK        CLEAR     27  24  89 CALM      30.20S
6HR MIN TEMP:  27; 6HR MAX TEMP:  33;

ALBION         PTCLDY    25  22  88 N6        30.20S WCI  18
BLAIR          CLEAR     34  29  83 W6        30.21R WCI  29
COLUMBUS *     CLEAR     27  21  80 CALM      30.23S
FREMONT        CLEAR     30  28  93 NW3       30.22R
TEKAMAH        CLEAR     35  29  78 W8        30.22R WCI  29
6HR MIN TEMP:  33; 6HR MAX TEMP:  38;

WAYNE          CLEAR     28  26  91 CALM      30.21S
$$

NEZ050>053-065>068-078-088>093-291300-
SOUTHEAST NEBRASKA

CITY           SKY/WX    TMP DP  RH WIND       PRES   REMARKS
LINCOLN        CLEAR     30  26  85 CALM      30.24S
6HR MIN TEMP:  28; 6HR MAX TEMP:  38;

OMAHA EPPLEY   CLEAR     36  29  75 W5        30.23R WCI  32
6HR MIN TEMP:  34; 6HR MAX TEMP:  42;

BEATRICE       CLEAR     29  28  94 CALM      30.23R
FALLS CITY     CLEAR     33  30  88 N3        30.22S
6HR MIN TEMP:  33; 6HR MAX TEMP:  40;

NEBRASKA CITY  CLEAR     35  29  78 NW6       30.23R WCI  30
PLATTSMOUTH    CLEAR     33  29  85 W6        30.22R WCI  28
$$

NEZ044-045-051>053-067-291300-
OMAHA AREA

CITY           SKY/WX    TMP DP  RH WIND       PRES   REMARKS
OMAHA EPPLEY   CLEAR     36  29  75 W5        30.23R WCI  32
6HR MIN TEMP:  34; 6HR MAX TEMP:  42;

BLAIR          CLEAR     34  29  83 W6        30.21R WCI  29
FREMONT        CLEAR     30  28  93 NW3       30.22R
MILLARD        CLEAR     35  31  88 CALM      30.22R
OFFUTT AFB     CLEAR     33  33  99 NW3       30.22R
PLATTSMOUTH    CLEAR     33  29  85 W6        30.22R WCI  28
WAHOO          FAIR      31  27  87 CALM      30.22S
$$



USA.gov is the U.S. government's official web portal to all federal, state and local government web resources and services.